AirNav   Air Wisconsin pilot careers
 
 380 users online  

1I3 Shawnee Field Airport
Bloomfield, Indiana, USA

GOING TO BLOOMFIELD?


FAA INFORMATION EFFECTIVE 29 MARCH 2018

Location

FAA Identifier: 1I3
Lat/Long: 39-02-33.8000N / 087-00-09.9000W
39-02.563333N / 087-00.165000W
39.0427222 / -87.0027500
(estimated)
Elevation: 501 ft. / 152.7 m (surveyed)
Variation: 01W (1985)
From city: 3 miles W of BLOOMFIELD, IN
Time zone: UTC -4 (UTC -5 during Standard Time)
Zip code: 47465

Airport Operations

Airport use: Open to the public
Activation date: 10/1970
Control tower: no
ARTCC: INDIANAPOLIS CENTER
FSS: TERRE HAUTE FLIGHT SERVICE STATION
NOTAMs facility: HUF (NOTAM-D service available)
Attendance: UNATTENDED
FOR ARPT ATTNDT CALL 812-384-6232.
Wind indicator: lighted
Segmented circle: no
Lights: SS-SR

Airport Communications

CTAF: 122.9
WX ASOS at BMG (19 nm E): 110.2 (812-825-8046)

Nearby radio navigation aids

VOR radial/distance  VOR name  Freq  Var
OOMr254/19.1HOOSIER VORTAC110.2002W
TTHr155/29.1TERRE HAUTE VORTAC115.3002E
LWVr061/32.5LAWRENCEVILLE VOR/DME108.8001W

 
NDB name  Hdg/Dist  Freq  Var  ID
SULLIVAN104/21.132602WSIV ... .. ...-
PALESTINE090/29.839103WPLX .--. .-.. -..-

Airport Services

Parking: hangars and tiedowns
Airframe service: MINOR
Powerplant service: MINOR
PART TIME

Runway Information

Runway 18/36

Dimensions: 2160 x 150 ft. / 658 x 46 m
485 FT STWY NORTH END.
Surface: turf, in good condition
Runway edge lights: non-standard
RY 18/36 NSTD EDGE LGTS, PCV PIPE WITH GLASS JARS.
RUNWAY 18  RUNWAY 36
Latitude: 39-02.741323N39-02.385412N
Longitude: 087-00.165477W087-00.164000W
Elevation: 500.0 ft.500.0 ft.
Traffic pattern: leftleft
Runway heading: 181 magnetic, 180 true001 magnetic, 360 true
Markings: nonenone
Obstructions: none25 ft. bldg, 280 ft. from runway, 110 ft. left of centerline, 11:1 slope to clear

Airport Ownership and Management from official FAA records

Ownership: Privately-owned
Owner: SHAWNEE FIELD INC.
3416 W STATE ROAD 54
BLOOMFIELD, IN 47424
Phone (812) 384-6232
Manager: J. E. SUTPHIN
3416 W STATE ROAD 54
BLOOMFIELD, IN 47424
Phone (812) 384-6232

Airport Operational Statistics

Aircraft based on the field: 21
Single engine airplanes: 18
Ultralights: 3
    
Aircraft operations: avg 57/week *
83% local general aviation
17% transient general aviation
* for 12-month period ending 31 December 2016

Additional Remarks

370'ANTENNA TWR 1 MI NW.
RY 18/36 HAS A -4 FT SLOPE ON EAST SIDE; NORTH OF RY 18 THR.
BIRDS ON & INVOF RY.
ULTRA LGTS ON & INVOF ARPT.

Instrument Procedures

There are no published instrument procedures at 1I3.

Some nearby airports with instrument procedures:

KBMG - Monroe County Airport (19 nm E)
KSIV - Sullivan County Airport (21 nm W)
KDCY - Daviess County Airport (21 nm S)
0I2 - Brazil Clay County Airport (26 nm N)
KHUF - Terre Haute Regional Airport (28 nm NW)
 
Loc | Ops | Rwys | IFR | FBO | Links
Com | Nav | Svcs | Stats | Notes

AirNav Hotels Sweepstakes
 
Area around 1I3 (Shawnee Field Airport)
 
Road maps at: MapQuest Bing Google
 
Aerial photo
WARNING: Photo may not be current or correct
Aerial photo of 1I3 (Shawnee Field Airport)
Do you have a better or more recent aerial photo of Shawnee Field Airport that you would like to share? If so, please send us your photo.

 
Sectional chart

 
Airport distance calculator
Flying to Shawnee Field Airport? Find the distance to fly.

From to 1I3

Sunrise and sunset
Times for 23-Apr-2018
 Local
(UTC-4)
 Zulu
(UTC)
Morning civil twilight06:3310:33
Sunrise07:0111:01
Sunset20:3200:32
Evening civil twilight21:0001:00

Current date and time
Zulu (UTC)  23-Apr-2018 06:56:00
Local (UTC-4)  23-Apr-2018 02:56:00
 
METAR
KBMG 
19nm E 
230553Z AUTO 07011KT 10SM -RA OVC100 16/M01 A3008 RMK AO2 RAB48 SLP181 P0000 60000 T01561011 10172 20156 56013
KDCY 
21nm S 
230635Z AUTO 08009KT 10SM OVC090 15/M01 A3002 RMK AO2 T01451008
KHUF 
29nm NW 
230553Z 06013KT 10SM OVC095 14/01 A3009 RMK AO2 RAB15E16 SLP187 P0000 60000 T01390011 10167 20117 56012
KRSV 
30nm W 
230635Z AUTO 06010KT 10SM BKN110 15/01 A3005 RMK AO2 T01450008
KLWV 
32nm SW 
230553Z AUTO 05009KT 10SM OVC120 15/01 A3003 RMK AO2 SLP168 60000 T01500006 10172 20150 402330106 58014
KFRH 
36nm SE 
230635Z AUTO 06008KT 10SM SCT090 BKN110 14/M05 A3002 RMK AO1
KGPC 
37nm N 
230635Z AUTO 06007KT 10SM CLR 10/00 A3011 RMK AO2
TAF
KBMG 
19nm E 
230520Z 2306/2406 07010KT P6SM BKN130 FM230900 08007KT P6SM VCSH OVC100 FM231300 08007KT 6SM SHRA OVC045 FM231500 09009KT 5SM SHRA OVC015 FM231900 09009KT P6SM VCSH OVC008 AMD LTD TO CLD VIS AND WIND TIL 231300
NOTAMs
Click for the latest NOTAMs
NOTAMs are issued by the DoD/FAA and will open in a separate window not controlled by AirNav.

 

 
 

Would you like to see your business listed on this page?

 If your business provides an interesting product or service to pilots, flight crews, aircraft, or users of the Shawnee Field Airport, you should consider listing it here.  To start the listing process, click on the button below
 
Add a business
 

Other Pages about Shawnee Field Airport

Update a link
 
Copyright © AirNav, LLC. All rights reserved. Privacy Policy  Contact